owner,sensor,date,latitude,longitude,vertical_datum,wind_speed,wind_to_direction,wind_speed_of_gust,qcFlag 
FIT,ioos:station:wmo:SIPF1:1,2015-04-01T00:00:00Z,27.8620,-80.4450,1.0,6.6,172.0,99.0,'11111222,11111222,11144222' 
FIT,ioos:station:wmo:SIPF1:1,2015-04-01T00:15:00Z,27.8620,-80.4450,1.0,6.2,172.0,99.0,'11111222,11111222,11144222' 
FIT,ioos:station:wmo:SIPF1:1,2015-04-01T00:30:00Z,27.8620,-80.4450,1.0,6.2,173.0,99.0,'11111222,11111222,11144222' 
FIT,ioos:station:wmo:SIPF1:1,2015-04-01T00:45:00Z,27.8620,-80.4450,1.0,6.0,173.0,99.0,'11111222,11111222,11144222' 
FIT,ioos:station:wmo:SIPF1:1,2015-04-01T01:00:00Z,27.8620,-80.4450,1.0,5.5,172.0,99.0,'11111222,11111222,11144222' 
FIT,ioos:station:wmo:SIPF1:1,2015-04-01T01:15:00Z,27.8620,-80.4450,1.0,4.5,176.0,99.0,'11111222,11111222,11144222' 
FIT,ioos:station:wmo:SIPF1:1,2015-04-01T01:30:00Z,27.8620,-80.4450,1.0,4.9,178.0,99.0,'11111222,11111222,11144222' 
FIT,ioos:station:wmo:SIPF1:1,2015-04-01T01:45:00Z,27.8620,-80.4450,1.0,4.5,181.0,99.0,'11111222,11111222,11144222' 
FIT,ioos:station:wmo:SIPF1:1,2015-04-01T02:00:00Z,27.8620,-80.4450,1.0,4.5,189.0,99.0,'11111222,11111222,11144222' 
FIT,ioos:station:wmo:SIPF1:1,2015-04-01T02:15:00Z,27.8620,-80.4450,1.0,4.7,195.0,99.0,'11111222,11111222,11144222' 
FIT,ioos:station:wmo:SIPF1:1,2015-04-01T02:30:00Z,27.8620,-80.4450,1.0,4.2,208.0,99.0,'11111222,11111222,11144222' 
FIT,ioos:station:wmo:SIPF1:1,2015-04-01T02:45:00Z,27.8620,-80.4450,1.0,4.3,213.0,99.0,'11111222,11111222,11144222' 
FIT,ioos:station:wmo:SIPF1:1,2015-04-01T03:00:00Z,27.8620,-80.4450,1.0,4.4,210.0,99.0,'11111222,11111222,11144222' 
FIT,ioos:station:wmo:SIPF1:1,2015-04-01T03:15:00Z,27.8620,-80.4450,1.0,5.4,209.0,99.0,'11111222,11111222,11144222' 
FIT,ioos:station:wmo:SIPF1:1,2015-04-01T03:30:00Z,27.8620,-80.4450,1.0,5.2,211.0,99.0,'11111222,11111222,11144222' 
FIT,ioos:station:wmo:SIPF1:1,2015-04-01T03:45:00Z,27.8620,-80.4450,1.0,4.7,211.0,99.0,'11111222,11111222,11144222' 
FIT,ioos:station:wmo:SIPF1:1,2015-04-01T04:00:00Z,27.8620,-80.4450,1.0,4.0,211.0,99.0,'11111222,11111222,11144222' 
FIT,ioos:station:wmo:SIPF1:1,2015-04-01T04:15:00Z,27.8620,-80.4450,1.0,3.8,218.0,99.0,'11111222,11111222,11144222' 
FIT,ioos:station:wmo:SIPF1:1,2015-04-01T04:30:00Z,27.8620,-80.4450,1.0,4.1,215.0,99.0,'11111222,11111222,11144222' 
FIT,ioos:station:wmo:SIPF1:1,2015-04-01T04:45:00Z,27.8620,-80.4450,1.0,3.4,225.0,99.0,'11111222,11111222,11144222' 
FIT,ioos:station:wmo:SIPF1:1,2015-04-01T05:00:00Z,27.8620,-80.4450,1.0,3.1,235.0,99.0,'11111222,11111222,11144222' 
FIT,ioos:station:wmo:SIPF1:1,2015-04-01T05:15:00Z,27.8620,-80.4450,1.0,3.1,255.0,99.0,'11111222,11111222,11144222' 
FIT,ioos:station:wmo:SIPF1:1,2015-04-01T05:30:00Z,27.8620,-80.4450,1.0,2.3,250.0,99.0,'11111222,11111222,11144222' 
FIT,ioos:station:wmo:SIPF1:1,2015-04-01T05:45:00Z,27.8620,-80.4450,1.0,2.7,252.0,99.0,'11111222,11111222,11144222' 
FIT,ioos:station:wmo:SIPF1:1,2015-04-01T06:00:00Z,27.8620,-80.4450,1.0,2.4,241.0,99.0,'11111222,11111222,11144222' 
FIT,ioos:station:wmo:SIPF1:1,2015-04-01T06:15:00Z,27.8620,-80.4450,1.0,2.1,246.0,99.0,'11111222,11111222,11144222' 
FIT,ioos:station:wmo:SIPF1:1,2015-04-01T06:30:00Z,27.8620,-80.4450,1.0,1.9,236.0,99.0,'11111222,11111222,11144222' 
FIT,ioos:station:wmo:SIPF1:1,2015-04-01T06:45:00Z,27.8620,-80.4450,1.0,2.3,250.0,99.0,'11111222,11111222,11144222' 
FIT,ioos:station:wmo:SIPF1:1,2015-04-01T07:00:00Z,27.8620,-80.4450,1.0,2.7,261.0,99.0,'11111222,11111222,11144222' 
FIT,ioos:station:wmo:SIPF1:1,2015-04-01T07:15:00Z,27.8620,-80.4450,1.0,2.4,267.0,99.0,'11111222,11111222,11144222' 
FIT,ioos:station:wmo:SIPF1:1,2015-04-01T07:30:00Z,27.8620,-80.4450,1.0,2.7,275.0,99.0,'11111222,11111222,11144222' 
FIT,ioos:station:wmo:SIPF1:1,2015-04-01T07:45:00Z,27.8620,-80.4450,1.0,2.4,279.0,99.0,'11111222,11111222,11144222' 
FIT,ioos:station:wmo:SIPF1:1,2015-04-01T08:00:00Z,27.8620,-80.4450,1.0,3.1,275.0,99.0,'11111222,11111222,11144222' 
FIT,ioos:station:wmo:SIPF1:1,2015-04-01T08:15:00Z,27.8620,-80.4450,1.0,3.4,275.0,99.0,'11111222,11111222,11144222' 
FIT,ioos:station:wmo:SIPF1:1,2015-04-01T08:30:00Z,27.8620,-80.4450,1.0,3.0,278.0,99.0,'11111222,11111222,11144222' 
FIT,ioos:station:wmo:SIPF1:1,2015-04-01T08:45:00Z,27.8620,-80.4450,1.0,3.2,268.0,99.0,'11111222,11111222,11144222' 
FIT,ioos:station:wmo:SIPF1:1,2015-04-01T09:00:00Z,27.8620,-80.4450,1.0,3.3,267.0,99.0,'11111222,11111222,11144222' 
FIT,ioos:station:wmo:SIPF1:1,2015-04-01T09:15:00Z,27.8620,-80.4450,1.0,3.2,270.0,99.0,'11111222,11111222,11144222' 
FIT,ioos:station:wmo:SIPF1:1,2015-04-01T09:30:00Z,27.8620,-80.4450,1.0,3.3,260.0,99.0,'11111222,11111222,11144222' 
FIT,ioos:station:wmo:SIPF1:1,2015-04-01T09:45:00Z,27.8620,-80.4450,1.0,4.1,229.0,99.0,'11111222,11111222,11144222' 
FIT,ioos:station:wmo:SIPF1:1,2015-04-01T10:00:00Z,27.8620,-80.4450,1.0,4.7,210.0,99.0,'11111222,11111222,11144222' 
FIT,ioos:station:wmo:SIPF1:1,2015-04-01T10:15:00Z,27.8620,-80.4450,1.0,4.6,209.0,99.0,'11111222,11111222,11144222' 
FIT,ioos:station:wmo:SIPF1:1,2015-04-01T10:30:00Z,27.8620,-80.4450,1.0,4.1,218.0,99.0,'11111222,11111222,11144222' 
FIT,ioos:station:wmo:SIPF1:1,2015-04-01T10:45:00Z,27.8620,-80.4450,1.0,4.2,226.0,99.0,'11111222,11111222,11144222' 
FIT,ioos:station:wmo:SIPF1:1,2015-04-01T11:00:00Z,27.8620,-80.4450,1.0,4.0,225.0,99.0,'11111222,11111222,11144222' 
FIT,ioos:station:wmo:SIPF1:1,2015-04-01T11:15:00Z,27.8620,-80.4450,1.0,3.7,217.0,99.0,'11111222,11111222,11144222' 
FIT,ioos:station:wmo:SIPF1:1,2015-04-01T11:30:00Z,27.8620,-80.4450,1.0,3.6,221.0,99.0,'11111222,11111222,11144222' 
FIT,ioos:station:wmo:SIPF1:1,2015-04-01T11:45:00Z,27.8620,-80.4450,1.0,3.8,227.0,99.0,'11111222,11111222,11144222' 
FIT,ioos:station:wmo:SIPF1:1,2015-04-01T12:00:00Z,27.8620,-80.4450,1.0,4.2,231.0,99.0,'11111222,11111222,11144222' 
FIT,ioos:station:wmo:SIPF1:1,2015-04-01T12:15:00Z,27.8620,-80.4450,1.0,4.3,244.0,99.0,'11111222,11111222,11144222' 
FIT,ioos:station:wmo:SIPF1:1,2015-04-01T12:30:00Z,27.8620,-80.4450,1.0,4.6,242.0,99.0,'11111222,11111222,11144222' 
FIT,ioos:station:wmo:SIPF1:1,2015-04-01T12:45:00Z,27.8620,-80.4450,1.0,4.2,253.0,99.0,'11111222,11111222,11144222' 
FIT,ioos:station:wmo:SIPF1:1,2015-04-01T13:00:00Z,27.8620,-80.4450,1.0,4.2,256.0,99.0,'11111222,11111222,11144222' 
FIT,ioos:station:wmo:SIPF1:1,2015-04-01T13:15:00Z,27.8620,-80.4450,1.0,4.5,254.0,99.0,'11111222,11111222,11144222' 
FIT,ioos:station:wmo:SIPF1:1,2015-04-01T13:30:00Z,27.8620,-80.4450,1.0,4.8,249.0,99.0,'11111222,11111222,11144222' 
FIT,ioos:station:wmo:SIPF1:1,2015-04-01T13:45:00Z,27.8620,-80.4450,1.0,4.9,246.0,99.0,'11111222,11111222,11144222' 
FIT,ioos:station:wmo:SIPF1:1,2015-04-01T14:00:00Z,27.8620,-80.4450,1.0,5.0,244.0,99.0,'11111222,11111222,11144222' 
FIT,ioos:station:wmo:SIPF1:1,2015-04-01T14:15:00Z,27.8620,-80.4450,1.0,5.1,254.0,99.0,'11111222,11111222,11144222' 
FIT,ioos:station:wmo:SIPF1:1,2015-04-01T14:30:00Z,27.8620,-80.4450,1.0,5.2,258.0,99.0,'11111222,11111222,11144222' 
FIT,ioos:station:wmo:SIPF1:1,2015-04-01T14:45:00Z,27.8620,-80.4450,1.0,5.0,256.0,99.0,'11111222,11111222,11144222' 
FIT,ioos:station:wmo:SIPF1:1,2015-04-01T15:00:00Z,27.8620,-80.4450,1.0,4.7,254.0,99.0,'11111222,11111222,11144222' 
FIT,ioos:station:wmo:SIPF1:1,2015-04-01T15:15:00Z,27.8620,-80.4450,1.0,3.9,244.0,99.0,'11111222,11111222,11144222' 
FIT,ioos:station:wmo:SIPF1:1,2015-04-01T15:30:00Z,27.8620,-80.4450,1.0,3.6,245.0,99.0,'11111222,11111222,11144222' 
FIT,ioos:station:wmo:SIPF1:1,2015-04-01T15:45:00Z,27.8620,-80.4450,1.0,3.5,247.0,99.0,'11111222,11111222,11144222' 
FIT,ioos:station:wmo:SIPF1:1,2015-04-01T16:00:00Z,27.8620,-80.4450,1.0,3.0,248.0,99.0,'11111222,11111222,11144222' 
FIT,ioos:station:wmo:SIPF1:1,2015-04-01T16:15:00Z,27.8620,-80.4450,1.0,3.1,244.0,99.0,'11111222,11111222,11144222' 
FIT,ioos:station:wmo:SIPF1:1,2015-04-01T16:30:00Z,27.8620,-80.4450,1.0,3.2,285.0,99.0,'11111222,11111222,11144222' 
FIT,ioos:station:wmo:SIPF1:1,2015-04-01T16:45:00Z,27.8620,-80.4450,1.0,3.2,297.0,99.0,'11111222,11111222,11144222' 
FIT,ioos:station:wmo:SIPF1:1,2015-04-01T17:00:00Z,27.8620,-80.4450,1.0,3.2,298.0,99.0,'11111222,11111222,11144222' 
FIT,ioos:station:wmo:SIPF1:1,2015-04-01T17:15:00Z,27.8620,-80.4450,1.0,2.7,301.0,99.0,'11111222,11111222,11144222' 
FIT,ioos:station:wmo:SIPF1:1,2015-04-01T17:30:00Z,27.8620,-80.4450,1.0,1.7,289.0,99.0,'11111222,11111222,11144222' 
FIT,ioos:station:wmo:SIPF1:1,2015-04-01T17:45:00Z,27.8620,-80.4450,1.0,3.2,13.0,99.0,'11111222,11111222,11144222' 
FIT,ioos:station:wmo:SIPF1:1,2015-04-01T18:00:00Z,27.8620,-80.4450,1.0,3.3,73.0,99.0,'11111222,11111222,11144222' 
FIT,ioos:station:wmo:SIPF1:1,2015-04-01T18:15:00Z,27.8620,-80.4450,1.0,3.0,88.0,99.0,'11111222,11111222,11144222' 
FIT,ioos:station:wmo:SIPF1:1,2015-04-01T18:30:00Z,27.8620,-80.4450,1.0,3.2,100.0,99.0,'11111222,11111222,11144222' 
FIT,ioos:station:wmo:SIPF1:1,2015-04-01T18:45:00Z,27.8620,-80.4450,1.0,2.8,87.0,99.0,'11111222,11111222,11144222' 
FIT,ioos:station:wmo:SIPF1:1,2015-04-01T19:00:00Z,27.8620,-80.4450,1.0,3.2,115.0,99.0,'11111222,11111222,11144222' 
FIT,ioos:station:wmo:SIPF1:1,2015-04-01T19:15:00Z,27.8620,-80.4450,1.0,3.7,129.0,99.0,'11111222,11111222,11144222' 
FIT,ioos:station:wmo:SIPF1:1,2015-04-01T19:30:00Z,27.8620,-80.4450,1.0,4.1,132.0,99.0,'11111222,11111222,11144222' 
FIT,ioos:station:wmo:SIPF1:1,2015-04-01T19:45:00Z,27.8620,-80.4450,1.0,3.9,123.0,99.0,'11111222,11111222,11144222' 
FIT,ioos:station:wmo:SIPF1:1,2015-04-01T20:00:00Z,27.8620,-80.4450,1.0,3.8,124.0,99.0,'11111222,11111222,11144222' 
FIT,ioos:station:wmo:SIPF1:1,2015-04-01T20:15:00Z,27.8620,-80.4450,1.0,4.2,128.0,99.0,'11111222,11111222,11144222' 
FIT,ioos:station:wmo:SIPF1:1,2015-04-01T20:30:00Z,27.8620,-80.4450,1.0,4.1,128.0,99.0,'11111222,11111222,11144222' 
FIT,ioos:station:wmo:SIPF1:1,2015-04-01T20:45:00Z,27.8620,-80.4450,1.0,4.6,130.0,99.0,'11111222,11111222,11144222' 
FIT,ioos:station:wmo:SIPF1:1,2015-04-01T21:00:00Z,27.8620,-80.4450,1.0,4.8,137.0,99.0,'11111222,11111222,11144222' 
FIT,ioos:station:wmo:SIPF1:1,2015-04-01T21:15:00Z,27.8620,-80.4450,1.0,5.2,141.0,99.0,'11111222,11111222,11144222' 
FIT,ioos:station:wmo:SIPF1:1,2015-04-01T21:30:00Z,27.8620,-80.4450,1.0,5.4,137.0,99.0,'11111222,11111222,11144222' 
FIT,ioos:station:wmo:SIPF1:1,2015-04-01T21:45:00Z,27.8620,-80.4450,1.0,5.2,138.0,99.0,'11111222,11111222,11144222' 
FIT,ioos:station:wmo:SIPF1:1,2015-04-01T22:00:00Z,27.8620,-80.4450,1.0,5.3,141.0,99.0,'11111222,11111222,11144222' 
FIT,ioos:station:wmo:SIPF1:1,2015-04-01T22:15:00Z,27.8620,-80.4450,1.0,5.3,140.0,99.0,'11111222,11111222,11144222' 
FIT,ioos:station:wmo:SIPF1:1,2015-04-01T22:30:00Z,27.8620,-80.4450,1.0,5.5,142.0,99.0,'11111222,11111222,11144222' 
FIT,ioos:station:wmo:SIPF1:1,2015-04-01T22:45:00Z,27.8620,-80.4450,1.0,5.5,145.0,99.0,'11111222,11111222,11144222' 
FIT,ioos:station:wmo:SIPF1:1,2015-04-01T23:00:00Z,27.8620,-80.4450,1.0,5.5,144.0,99.0,'11111222,11111222,11144222' 
FIT,ioos:station:wmo:SIPF1:1,2015-04-01T23:15:00Z,27.8620,-80.4450,1.0,5.5,141.0,99.0,'11111222,11111222,11144222' 
FIT,ioos:station:wmo:SIPF1:1,2015-04-01T23:30:00Z,27.8620,-80.4450,1.0,5.2,141.0,99.0,'11111222,11111222,11144222' 
FIT,ioos:station:wmo:SIPF1:1,2015-04-01T23:45:00Z,27.8620,-80.4450,1.0,5.7,145.0,99.0,'11111222,11111222,11144222' 
FIT,ioos:station:wmo:SIPF1:1,2015-04-02T00:00:00Z,27.8620,-80.4450,1.0,6.3,148.0,99.0,'11111222,11111222,11144222' 
FIT,ioos:station:wmo:SIPF1:1,2015-04-02T00:15:00Z,27.8620,-80.4450,1.0,6.2,155.0,99.0,'11111222,11111222,11144222' 
FIT,ioos:station:wmo:SIPF1:1,2015-04-02T00:30:00Z,27.8620,-80.4450,1.0,6.0,158.0,99.0,'11111222,11111222,11144222' 
FIT,ioos:station:wmo:SIPF1:1,2015-04-02T00:45:00Z,27.8620,-80.4450,1.0,6.0,157.0,99.0,'11111222,11111222,11144222' 
FIT,ioos:station:wmo:SIPF1:1,2015-04-02T01:00:00Z,27.8620,-80.4450,1.0,5.7,162.0,99.0,'11111222,11111222,11144222' 
FIT,ioos:station:wmo:SIPF1:1,2015-04-02T01:15:00Z,27.8620,-80.4450,1.0,5.1,174.0,99.0,'11111222,11111222,11144222' 
FIT,ioos:station:wmo:SIPF1:1,2015-04-02T01:30:00Z,27.8620,-80.4450,1.0,5.3,172.0,99.0,'11111222,11111222,11144222' 
FIT,ioos:station:wmo:SIPF1:1,2015-04-02T01:45:00Z,27.8620,-80.4450,1.0,5.2,173.0,99.0,'11111222,11111222,11144222' 
FIT,ioos:station:wmo:SIPF1:1,2015-04-02T02:00:00Z,27.8620,-80.4450,1.0,3.8,174.0,99.0,'11111222,11111222,11144222' 
FIT,ioos:station:wmo:SIPF1:1,2015-04-02T02:15:00Z,27.8620,-80.4450,1.0,3.9,182.0,99.0,'11111222,11111222,11144222' 
FIT,ioos:station:wmo:SIPF1:1,2015-04-02T02:30:00Z,27.8620,-80.4450,1.0,2.8,200.0,99.0,'11111222,11111222,11144222' 
FIT,ioos:station:wmo:SIPF1:1,2015-04-02T02:45:00Z,27.8620,-80.4450,1.0,2.8,194.0,99.0,'11111222,11111222,11144222' 
FIT,ioos:station:wmo:SIPF1:1,2015-04-02T03:00:00Z,27.8620,-80.4450,1.0,2.5,192.0,99.0,'11111222,11111222,11144222' 
FIT,ioos:station:wmo:SIPF1:1,2015-04-02T03:15:00Z,27.8620,-80.4450,1.0,1.9,209.0,99.0,'11111222,11111222,11144222' 
FIT,ioos:station:wmo:SIPF1:1,2015-04-02T03:30:00Z,27.8620,-80.4450,1.0,1.5,258.0,99.0,'11111222,11111222,11144222' 
FIT,ioos:station:wmo:SIPF1:1,2015-04-02T03:45:00Z,27.8620,-80.4450,1.0,2.1,259.0,99.0,'11111222,11111222,11144222' 
FIT,ioos:station:wmo:SIPF1:1,2015-04-02T04:00:00Z,27.8620,-80.4450,1.0,2.4,274.0,99.0,'11111222,11111222,11144222' 
FIT,ioos:station:wmo:SIPF1:1,2015-04-02T04:15:00Z,27.8620,-80.4450,1.0,2.3,299.0,99.0,'11111222,11111222,11144222' 
FIT,ioos:station:wmo:SIPF1:1,2015-04-02T04:30:00Z,27.8620,-80.4450,1.0,2.4,297.0,99.0,'11111222,11111222,11144222' 
FIT,ioos:station:wmo:SIPF1:1,2015-04-02T04:45:00Z,27.8620,-80.4450,1.0,2.4,286.0,99.0,'11111222,11111222,11144222' 
FIT,ioos:station:wmo:SIPF1:1,2015-04-02T05:00:00Z,27.8620,-80.4450,1.0,2.1,277.0,99.0,'11111222,11111222,11144222' 
FIT,ioos:station:wmo:SIPF1:1,2015-04-02T05:15:00Z,27.8620,-80.4450,1.0,1.6,263.0,99.0,'11111222,11111222,11144222' 
FIT,ioos:station:wmo:SIPF1:1,2015-04-02T05:30:00Z,27.8620,-80.4450,1.0,1.5,283.0,99.0,'11111222,11111222,11144222' 
FIT,ioos:station:wmo:SIPF1:1,2015-04-02T05:45:00Z,27.8620,-80.4450,1.0,2.1,320.0,99.0,'11111222,11111222,11144222' 
FIT,ioos:station:wmo:SIPF1:1,2015-04-02T06:00:00Z,27.8620,-80.4450,1.0,2.4,326.0,99.0,'11111222,11111222,11144222' 
FIT,ioos:station:wmo:SIPF1:1,2015-04-02T06:15:00Z,27.8620,-80.4450,1.0,4.1,328.0,99.0,'11111222,11111222,11144222' 
FIT,ioos:station:wmo:SIPF1:1,2015-04-02T06:30:00Z,27.8620,-80.4450,1.0,6.0,336.0,99.0,'11111222,11111222,11144222' 
FIT,ioos:station:wmo:SIPF1:1,2015-04-02T06:45:00Z,27.8620,-80.4450,1.0,5.6,344.0,99.0,'11111222,11111222,11144222' 
FIT,ioos:station:wmo:SIPF1:1,2015-04-02T07:00:00Z,27.8620,-80.4450,1.0,5.9,353.0,99.0,'11111222,11111222,11144222' 
FIT,ioos:station:wmo:SIPF1:1,2015-04-02T07:15:00Z,27.8620,-80.4450,1.0,4.2,345.0,99.0,'11111222,11111222,11144222' 
FIT,ioos:station:wmo:SIPF1:1,2015-04-02T07:30:00Z,27.8620,-80.4450,1.0,5.2,353.0,99.0,'11111222,11111222,11144222' 
FIT,ioos:station:wmo:SIPF1:1,2015-04-02T07:45:00Z,27.8620,-80.4450,1.0,3.7,333.0,99.0,'11111222,11111222,11144222' 
FIT,ioos:station:wmo:SIPF1:1,2015-04-02T08:00:00Z,27.8620,-80.4450,1.0,3.2,320.0,99.0,'11111222,11111222,11144222' 
FIT,ioos:station:wmo:SIPF1:1,2015-04-02T08:15:00Z,27.8620,-80.4450,1.0,3.6,319.0,99.0,'11111222,11111222,11144222' 
FIT,ioos:station:wmo:SIPF1:1,2015-04-02T08:30:00Z,27.8620,-80.4450,1.0,3.4,329.0,99.0,'11111222,11111222,11144222' 
FIT,ioos:station:wmo:SIPF1:1,2015-04-02T08:45:00Z,27.8620,-80.4450,1.0,3.2,323.0,99.0,'11111222,11111222,11144222' 
FIT,ioos:station:wmo:SIPF1:1,2015-04-02T09:00:00Z,27.8620,-80.4450,1.0,3.3,320.0,99.0,'11111222,11111222,11144222' 
FIT,ioos:station:wmo:SIPF1:1,2015-04-02T09:15:00Z,27.8620,-80.4450,1.0,3.1,323.0,99.0,'11111222,11111222,11144222' 
FIT,ioos:station:wmo:SIPF1:1,2015-04-02T09:30:00Z,27.8620,-80.4450,1.0,2.9,307.0,99.0,'11111222,11111222,11144222' 
FIT,ioos:station:wmo:SIPF1:1,2015-04-02T09:45:00Z,27.8620,-80.4450,1.0,2.6,306.0,99.0,'11111222,11111222,11144222' 
FIT,ioos:station:wmo:SIPF1:1,2015-04-02T10:00:00Z,27.8620,-80.4450,1.0,2.3,304.0,99.0,'11111222,11111222,11144222' 
FIT,ioos:station:wmo:SIPF1:1,2015-04-02T10:15:00Z,27.8620,-80.4450,1.0,2.3,310.0,99.0,'11111222,11111222,11144222' 
FIT,ioos:station:wmo:SIPF1:1,2015-04-02T10:30:00Z,27.8620,-80.4450,1.0,2.5,326.0,99.0,'11111222,11111222,11144222' 
FIT,ioos:station:wmo:SIPF1:1,2015-04-02T10:45:00Z,27.8620,-80.4450,1.0,2.8,328.0,99.0,'11111222,11111222,11144222' 
FIT,ioos:station:wmo:SIPF1:1,2015-04-02T11:00:00Z,27.8620,-80.4450,1.0,3.3,337.0,99.0,'11111222,11111222,11144222' 
FIT,ioos:station:wmo:SIPF1:1,2015-04-02T11:15:00Z,27.8620,-80.4450,1.0,3.5,351.0,99.0,'11111222,11111222,11144222' 
FIT,ioos:station:wmo:SIPF1:1,2015-04-02T11:30:00Z,27.8620,-80.4450,1.0,2.7,336.0,99.0,'11111222,11111222,11144222' 
FIT,ioos:station:wmo:SIPF1:1,2015-04-02T11:45:00Z,27.8620,-80.4450,1.0,2.3,332.0,99.0,'11111222,11111222,11144222' 
FIT,ioos:station:wmo:SIPF1:1,2015-04-02T12:00:00Z,27.8620,-80.4450,1.0,2.1,325.0,99.0,'11111222,11111222,11144222' 
FIT,ioos:station:wmo:SIPF1:1,2015-04-02T12:15:00Z,27.8620,-80.4450,1.0,1.8,327.0,99.0,'11111222,11111222,11144222' 
FIT,ioos:station:wmo:SIPF1:1,2015-04-02T12:30:00Z,27.8620,-80.4450,1.0,1.9,329.0,99.0,'11111222,11111222,11144222' 
FIT,ioos:station:wmo:SIPF1:1,2015-04-02T12:45:00Z,27.8620,-80.4450,1.0,1.5,331.0,99.0,'11111222,11111222,11144222' 
FIT,ioos:station:wmo:SIPF1:1,2015-04-02T13:00:00Z,27.8620,-80.4450,1.0,2.0,332.0,99.0,'11111222,11111222,11144222' 
FIT,ioos:station:wmo:SIPF1:1,2015-04-02T13:15:00Z,27.8620,-80.4450,1.0,2.4,348.0,99.0,'11111222,11111222,11144222' 
FIT,ioos:station:wmo:SIPF1:1,2015-04-02T13:30:00Z,27.8620,-80.4450,1.0,2.3,7.0,99.0,'11111222,11111222,11144222' 
FIT,ioos:station:wmo:SIPF1:1,2015-04-02T13:45:00Z,27.8620,-80.4450,1.0,2.5,19.0,99.0,'11111222,11111222,11144222' 
FIT,ioos:station:wmo:SIPF1:1,2015-04-02T14:00:00Z,27.8620,-80.4450,1.0,2.6,27.0,99.0,'11111222,11111222,11144222' 
FIT,ioos:station:wmo:SIPF1:1,2015-04-02T14:15:00Z,27.8620,-80.4450,1.0,2.9,39.0,99.0,'11111222,11111222,11144222' 
FIT,ioos:station:wmo:SIPF1:1,2015-04-02T14:30:00Z,27.8620,-80.4450,1.0,2.8,34.0,99.0,'11111222,11111222,11144222' 
FIT,ioos:station:wmo:SIPF1:1,2015-04-02T14:45:00Z,27.8620,-80.4450,1.0,2.2,38.0,99.0,'11111222,11111222,11144222' 
FIT,ioos:station:wmo:SIPF1:1,2015-04-02T15:00:00Z,27.8620,-80.4450,1.0,1.7,47.0,99.0,'11111222,11111222,11144222' 
FIT,ioos:station:wmo:SIPF1:1,2015-04-02T15:15:00Z,27.8620,-80.4450,1.0,1.5,64.0,99.0,'11111222,11111222,11144222' 
FIT,ioos:station:wmo:SIPF1:1,2015-04-02T15:30:00Z,27.8620,-80.4450,1.0,1.9,55.0,99.0,'11111222,11111222,11144222' 
FIT,ioos:station:wmo:SIPF1:1,2015-04-02T15:45:00Z,27.8620,-80.4450,1.0,1.8,63.0,99.0,'11111222,11111222,11144222' 
FIT,ioos:station:wmo:SIPF1:1,2015-04-02T16:00:00Z,27.8620,-80.4450,1.0,1.8,67.0,99.0,'11111222,11111222,11144222' 
FIT,ioos:station:wmo:SIPF1:1,2015-04-02T16:15:00Z,27.8620,-80.4450,1.0,2.1,64.0,99.0,'11111222,11111222,11144222' 
FIT,ioos:station:wmo:SIPF1:1,2015-04-02T16:30:00Z,27.8620,-80.4450,1.0,2.3,69.0,99.0,'11111222,11111222,11144222' 
FIT,ioos:station:wmo:SIPF1:1,2015-04-02T16:45:00Z,27.8620,-80.4450,1.0,2.4,69.0,99.0,'11111222,11111222,11144222' 
FIT,ioos:station:wmo:SIPF1:1,2015-04-02T17:00:00Z,27.8620,-80.4450,1.0,3.2,76.0,99.0,'11111222,11111222,11144222' 
FIT,ioos:station:wmo:SIPF1:1,2015-04-02T17:15:00Z,27.8620,-80.4450,1.0,3.1,77.0,99.0,'11111222,11111222,11144222' 
FIT,ioos:station:wmo:SIPF1:1,2015-04-02T17:30:00Z,27.8620,-80.4450,1.0,3.5,88.0,99.0,'11111222,11111222,11144222' 
FIT,ioos:station:wmo:SIPF1:1,2015-04-02T17:45:00Z,27.8620,-80.4450,1.0,3.4,91.0,99.0,'11111222,11111222,11144222' 
FIT,ioos:station:wmo:SIPF1:1,2015-04-02T18:00:00Z,27.8620,-80.4450,1.0,4.0,99.0,99.0,'11111222,11111222,11144222' 
FIT,ioos:station:wmo:SIPF1:1,2015-04-02T18:15:00Z,27.8620,-80.4450,1.0,4.4,100.0,99.0,'11111222,11111222,11144222' 
FIT,ioos:station:wmo:SIPF1:1,2015-04-02T18:30:00Z,27.8620,-80.4450,1.0,4.8,97.0,99.0,'11111222,11111222,11144222' 
FIT,ioos:station:wmo:SIPF1:1,2015-04-02T18:45:00Z,27.8620,-80.4450,1.0,4.6,112.0,99.0,'11111222,11111222,11144222' 
FIT,ioos:station:wmo:SIPF1:1,2015-04-02T19:00:00Z,27.8620,-80.4450,1.0,4.4,111.0,99.0,'11111222,11111222,11144222' 
FIT,ioos:station:wmo:SIPF1:1,2015-04-02T19:15:00Z,27.8620,-80.4450,1.0,4.1,108.0,99.0,'11111222,11111222,11144222' 
FIT,ioos:station:wmo:SIPF1:1,2015-04-02T19:30:00Z,27.8620,-80.4450,1.0,4.0,112.0,99.0,'11111222,11111222,11144222' 
FIT,ioos:station:wmo:SIPF1:1,2015-04-02T19:45:00Z,27.8620,-80.4450,1.0,4.3,105.0,99.0,'11111222,11111222,11144222' 
FIT,ioos:station:wmo:SIPF1:1,2015-04-02T20:00:00Z,27.8620,-80.4450,1.0,4.1,107.0,99.0,'11111222,11111222,11144222' 
FIT,ioos:station:wmo:SIPF1:1,2015-04-02T20:15:00Z,27.8620,-80.4450,1.0,4.0,110.0,99.0,'11111222,11111222,11144222' 
FIT,ioos:station:wmo:SIPF1:1,2015-04-02T20:30:00Z,27.8620,-80.4450,1.0,4.4,114.0,99.0,'11111222,11111222,11144222' 
FIT,ioos:station:wmo:SIPF1:1,2015-04-02T20:45:00Z,27.8620,-80.4450,1.0,4.2,111.0,99.0,'11111222,11111222,11144222' 
FIT,ioos:station:wmo:SIPF1:1,2015-04-02T21:00:00Z,27.8620,-80.4450,1.0,4.2,115.0,99.0,'11111222,11111222,11144222' 
FIT,ioos:station:wmo:SIPF1:1,2015-04-02T21:15:00Z,27.8620,-80.4450,1.0,3.6,109.0,99.0,'11111222,11111222,11144222' 
FIT,ioos:station:wmo:SIPF1:1,2015-04-02T21:30:00Z,27.8620,-80.4450,1.0,3.4,108.0,99.0,'11111222,11111222,11144222' 
FIT,ioos:station:wmo:SIPF1:1,2015-04-02T21:45:00Z,27.8620,-80.4450,1.0,3.6,114.0,99.0,'11111222,11111222,11144222' 
FIT,ioos:station:wmo:SIPF1:1,2015-04-02T22:00:00Z,27.8620,-80.4450,1.0,3.8,106.0,99.0,'11111222,11111222,11144222' 
FIT,ioos:station:wmo:SIPF1:1,2015-04-02T22:15:00Z,27.8620,-80.4450,1.0,4.0,108.0,99.0,'11111222,11111222,11144222' 
FIT,ioos:station:wmo:SIPF1:1,2015-04-02T22:30:00Z,27.8620,-80.4450,1.0,4.0,116.0,99.0,'11111222,11111222,11144222' 
FIT,ioos:station:wmo:SIPF1:1,2015-04-02T22:45:00Z,27.8620,-80.4450,1.0,4.4,121.0,99.0,'11111222,11111222,11144222' 
FIT,ioos:station:wmo:SIPF1:1,2015-04-02T23:00:00Z,27.8620,-80.4450,1.0,4.6,127.0,99.0,'11111222,11111222,11144222' 
FIT,ioos:station:wmo:SIPF1:1,2015-04-02T23:15:00Z,27.8620,-80.4450,1.0,4.3,123.0,99.0,'11111222,11111222,11144222' 
FIT,ioos:station:wmo:SIPF1:1,2015-04-02T23:30:00Z,27.8620,-80.4450,1.0,4.5,123.0,99.0,'11111222,11111222,11144222' 
FIT,ioos:station:wmo:SIPF1:1,2015-04-02T23:45:00Z,27.8620,-80.4450,1.0,4.7,128.0,99.0,'11111222,11111222,11144222' 
FIT,ioos:station:wmo:SIPF1:1,2015-04-03T00:00:00Z,27.8620,-80.4450,1.0,4.7,134.0,99.0,'11111222,11111222,11144222' 
FIT,ioos:station:wmo:SIPF1:1,2015-04-03T00:15:00Z,27.8620,-80.4450,1.0,4.7,139.0,99.0,'11111222,11111222,11144222' 
FIT,ioos:station:wmo:SIPF1:1,2015-04-03T00:30:00Z,27.8620,-80.4450,1.0,4.8,141.0,99.0,'11111222,11111222,11144222' 
FIT,ioos:station:wmo:SIPF1:1,2015-04-03T00:45:00Z,27.8620,-80.4450,1.0,4.5,146.0,99.0,'11111222,11111222,11144222' 
FIT,ioos:station:wmo:SIPF1:1,2015-04-03T01:00:00Z,27.8620,-80.4450,1.0,4.5,152.0,99.0,'11111222,11111222,11144222' 
FIT,ioos:station:wmo:SIPF1:1,2015-04-03T01:15:00Z,27.8620,-80.4450,1.0,4.1,142.0,99.0,'11111222,11111222,11144222' 
FIT,ioos:station:wmo:SIPF1:1,2015-04-03T01:30:00Z,27.8620,-80.4450,1.0,4.0,142.0,99.0,'11111222,11111222,11144222' 
FIT,ioos:station:wmo:SIPF1:1,2015-04-03T01:45:00Z,27.8620,-80.4450,1.0,3.8,133.0,99.0,'11111222,11111222,11144222' 
FIT,ioos:station:wmo:SIPF1:1,2015-04-03T02:00:00Z,27.8620,-80.4450,1.0,3.5,135.0,99.0,'11111222,11111222,11144222' 
FIT,ioos:station:wmo:SIPF1:1,2015-04-03T02:15:00Z,27.8620,-80.4450,1.0,3.7,137.0,99.0,'11111222,11111222,11144222' 
FIT,ioos:station:wmo:SIPF1:1,2015-04-03T02:30:00Z,27.8620,-80.4450,1.0,3.9,141.0,99.0,'11111222,11111222,11144222' 
FIT,ioos:station:wmo:SIPF1:1,2015-04-03T02:45:00Z,27.8620,-80.4450,1.0,4.3,144.0,99.0,'11111222,11111222,11144222' 
FIT,ioos:station:wmo:SIPF1:1,2015-04-03T03:00:00Z,27.8620,-80.4450,1.0,4.2,143.0,99.0,'11111222,11111222,11144222' 
FIT,ioos:station:wmo:SIPF1:1,2015-04-03T03:15:00Z,27.8620,-80.4450,1.0,4.1,148.0,99.0,'11111222,11111222,11144222' 